Tracking 28790 objects as of 18-Apr-2024
HD Live streaming from Space Station
objects crossing your sky now

CZ-3B DEB

Track CZ-3B DEB now!


NORAD ID: 38748
Int'l Code: 2010-042C
Perigee: 397.1 km
Apogee: 36,479.3 km
Inclination: 24.2 °
Period: 648.2 minutes
Semi major axis: 24809 km
RCS: 0.003 m2 (small)
Launch date: September 4, 2010
Source: People's Republic of China (PRC)
Launch site: Xichang Space Center, China (XSC)

Note: This is SATELLITE DEBRIS
Your satellite tracking list
Your tracking list is empty




NASA's NSSDC Master Catalog

Two Line Element Set (TLE):
1 38748U 10042C   24107.96855002  .00010924  00000-0  26575-1 0  9998
2 38748  24.2419 353.4151 7271947 187.9694 145.8759  2.22169432 96147
Source of the keplerian elements: AFSPC